Flag for Germany Weather past 2 weeks in Grevenbroich, North Rhine-Westphalia, Germany

Now
50 °F

Passing clouds.


Feels Like: 46 °F
Forecast: 37 / 57 °F
Wind: 12 mph from Northwest

Location: Monchengladbach Airport

Current Time: Apr 28, 2015 at 9:24:46 PM

Latest Report: Apr 28, 2015 at 8:20 PM


Visibility: N/A

Pressure: 30.09 "Hg

Humidity: 35%

Dew point: 23 °F

Location of GrevenbroichLocation

Historic Weather in Grevenbroich — Graph

°F

Grevenbroich temperature yesterday

Maximum temperature yesterday: 52 °F (at 3:50 PM)
Minimum temperature yesterday: 45 °F (at 8:20 AM)
Average temperature yesterday: 49 °F

Past Weeks' High & Low Weather Summary

 TemperatureHumidityPressure
High75 °F (Apr 15, 3:20 PM)100% (Apr 16, 7:50 AM)30.45 "Hg (Apr 16, 7:50 AM)
Low37 °F (Apr 28, 7:50 AM)26% (Apr 21, 5:20 PM)29.68 "Hg (Apr 26, 3:50 PM)
Average57 °F60%30.08 "Hg
* Reported Apr 13 8:20 PM — Apr 28 8:20 PM, Grevenbroich, Weather by CustomWeather, © 2015

Note: Actual official high and low records may vary slightly from our data, if they occured in-between our weather recording intervals... More about our weather records

Advertising

Grevenbroich weather history for previous 24 hours

 ConditionsComfort  
Time TempWeatherWind HumidityBarometerVisibility
8:20 PM
Tue, Apr 28
50 °FPassing clouds.12 mph35%30.09 "HgN/A
7:50 PM52 °FClear.14 mph35%30.09 "Hg10 mi
7:20 PM52 °FClear.15 mph38%30.09 "Hg10 mi
6:50 PM54 °FPassing clouds.12 mph35%30.09 "HgN/A
6:20 PM54 °FPassing clouds.16 mph38%30.07 "HgN/A
5:50 PM54 °FPassing clouds.13 mph35%30.07 "HgN/A
5:20 PM54 °FPassing clouds.16 mph38%30.07 "HgN/A
4:50 PM54 °FPassing clouds.14 mph33%30.04 "HgN/A
4:20 PM54 °FPassing clouds.8 mph51%30.04 "HgN/A
3:50 PM52 °FPassing clouds.12 mph50%30.04 "HgN/A
3:20 PM54 °FPassing clouds.10 mph54%30.04 "HgN/A
2:50 PM52 °FSprinkles. Passing clouds.13 mph54%30.04 "HgN/A
2:20 PM52 °FPassing clouds.16 mph58%30.04 "HgN/A
1:50 PM48 °FScattered showers. Passing clouds.21 mph62%30.01 "HgN/A
1:20 PM54 °FPassing clouds.9 mph54%30.01 "HgN/A
12:50 PM54 °FScattered clouds.9 mph54%29.98 "HgN/A
12:20 PM52 °FSprinkles. Scattered clouds.10 mph58%29.98 "HgN/A
11:50 AM54 °FBroken clouds.9 mph58%29.98 "HgN/A
11:20 AM52 °FScattered clouds.8 mph62%29.98 "HgN/A
10:50 AM50 °FPassing clouds.9 mph62%29.98 "HgN/A
10:20 AM48 °FPassing clouds.9 mph62%29.98 "HgN/A
9:50 AM48 °FPassing clouds.6 mph66%29.98 "HgN/A
9:20 AM45 °FPassing clouds.5 mph71%29.95 "HgN/A
8:50 AM45 °FSunny.2 mph76%29.95 "Hg10 mi
8:20 AM41 °FSunny.1 mph81%29.95 "Hg10 mi
7:50 AM37 °FSunny.2 mph100%29.95 "Hg10 mi
Weather by CustomWeather, © 2015

See weather overviewHow to use our weather pages